Location: *
(34.8620°S, 39.3380°E)
Time: 22:21:12
(UTC+00:00)

SAOCOM 1-B - Pass Details

Date: 01 June 2022
Orbit: 621 x 623 km, 97.9° (Epoch: 01 July)

Event Time Altitude Azimuth Distance (km) Brightness Sun altitude
Rises 14:42:09 0° 17° (NNE) 2,890 ? -5.1°
Reaches altitude 10° 14:44:19 10° 18° (NNE) 1,993 ? -5.5°
Maximum altitude 14:48:38 76° 103° (ESE) 652 ? -6.3°
Drops below altitude 10° 14:53:03 10° 189° (S) 2,022 ? -7.1°
Sets 14:55:16 0° 190° (S) 2,937 ? -7.6°
